Preview of NWS' New Version of Forecast
This preview is not operational and should not be used for support decisions.

Regional Weather Roundup (RWR)

Issued by National Weather Service (NWS)

                            
000
ASUS43 KDTX 220501
RWRMI 
MICHIGAN HOURLY REGIONAL WEATHER ROUNDUP
NATIONAL WEATHER SERVICE DETROIT/PONTIAC MI
1200 AM EST FRI FEB 22 2019

NOTE: "FAIR" INDICATES FEW OR NO CLOUDS BELOW 12,000 FEET WITH NO
SIGNIFICANT WEATHER AND/OR OBSTRUCTION TO VISIBILITY.

MIZ047>049-052>055-059>063-066>070-074>076-081>083-220600-
SOUTHEAST LOWER MICHIGAN
  
CITY           SKY/WX    TMP DP  RH WIND       PRES   REMARKS
ADRIAN         FAIR      30  20  66 NW3       30.30F                  
ALMA           FAIR      22  15  74 CALM      30.29F                  
ANN ARBOR      FAIR      28  20  71 NW6       30.29S WCI  22          
BAD AXE        FAIR      26  20  77 W3        30.26S                  
CARO           FAIR      26  20  79 CALM      30.27S                  
DETROIT CITY   FAIR      30  19  63 W5        30.29S WCI  25          
DETROIT        MOCLDY    29  19  66 NW7       30.30S WCI  22          
FLINT          FAIR      24  18  77 W6        30.29R WCI  17          
GROSSE ILE     FAIR      31  21  67 NW6       30.29S WCI  25          
HILLSDALE      FAIR      28  19  70 CALM      30.26S                  
HOWELL         FAIR      26  19  77 W5        30.28S WCI  20          

CITY           SKY/WX    TMP DP  RH WIND       PRES   REMARKS
JACKSON        FAIR      27  21  78 CALM      30.28S                  
LAMBERTVILLE   FAIR      32  23  69 CALM      30.30S                  
LANSING        FAIR      25  19  78 W3        30.29F                  
LAPEER         FAIR      27  19  70 CALM      30.27S                  
MASON          FAIR      27  21  77 CALM      30.28F                  
MONROE         FAIR      31  25  80 NW5       30.29S WCI  26          
MT. CLEMENS    FAIR      29  22  74 CALM      30.27S                  
PONTIAC        CLOUDY    27  19  72 W6        30.26S WCI  20          
PORT HOPE        N/A     27  18  69 W13       30.26R WCI  16          
PORT HURON     FAIR      28  21  74 CALM      30.28S                  
TRI CITIES     FAIR      24  16  71 NW6       30.29S WCI  17          
MIDLAND        FAIR      23  17  79 CALM      30.28S                  
TROY           FAIR      30  17  59 W5        30.31R WCI  25          
SAGINAW HB     FAIR      27  18  69 W3        30.29S                  
$$
MIZ043>046-050>051-056>058-064>065-071>073-077>080-220600-
SOUTHWEST LOWER MICHIGAN
  
CITY           SKY/WX    TMP DP  RH WIND       PRES   REMARKS
BATTLE CREEK   FAIR      26  19  74 CALM      30.29S                  
BENTON HARBOR  FAIR      30  19  63 CALM      30.30F                  
BIG RAPIDS     FAIR      19  16  87 CALM      30.26S                  
COLDWATER      FAIR      28  24  84 CALM      30.28S                  
FREMONT        FAIR      20  16  86 CALM      30.29R                  
HOLLAND        FAIR      26  18  71 CALM      30.31R                  
GRAND RAPIDS   MOCLDY    28  17  63 CALM      30.29S                  
IONIA          FAIR      24  16  73 CALM      30.29R                  
KALAMAZOO      FAIR      28  20  71 CALM      30.29S                  
LUDINGTON      FAIR      19  16  89 CALM      30.29R                  
MARSHALL       FAIR      28  22  78 CALM      30.28S                  
MOUNT PLEASANT FAIR      23  15  71 CALM      30.27F                  
MUSKEGON       FAIR      22  16  78 CALM      30.31R                  
SOUTH HAVEN    FAIR      29  21  71 CALM      30.30S                  
$$
MIZ016>042-220600-
NORTHERN LOWER MICHIGAN
  
CITY           SKY/WX    TMP DP  RH WIND       PRES   REMARKS
ALPENA         CLOUDY    28  20  71 W6        30.26R WCI  22          
BEAVER ISLAND  CLOUDY    27  23  84 CALM      30.27S                  
BELLAIRE       CLOUDY    27  22  81 SE3       30.28S                  
CADILLAC         N/A      9   6  88 CALM      30.22F FOG              
CHARLEVOIX     CLOUDY    28  24  84 CALM      30.30S                  
FRANKFORT      CLOUDY    26  21  80 CALM      30.28R                  
GAYLORD        CLOUDY    23  20  88 CALM      30.23R FOG              
HARBOR SPRINGS CLOUDY    26  23  87 CALM      30.27R                  
HOUGHTON LAKE  FAIR      16  13  88 W3        30.24F                  
MANISTEE       FAIR      15  12  88 CALM      30.29R FOG              
OSCODA         CLOUDY    21  15  77 NW3       30.26F                  
PELLSTON       CLOUDY    27  20  75 W3        30.27R                  
ROGERS CITY    FLURRIES  27  23  87 W5        30.27S WCI  21          
TRAVERSE CITY  CLOUDY    28  20  71 CALM      30.26F                  
$$
MIZ007>008-015-220600-
EASTERN UPPER MICHIGAN
  
CITY           SKY/WX    TMP DP  RH WIND       PRES   REMARKS
KINROSS        FLURRIES  25  22  88 W6        30.24S WCI  18          
MACKINAC ISLAN CLOUDY    28  20  74 W6        30.25S WCI  21          
NEWBERRY       CLOUDY    25  23  91 MISG      30.24S                  
S. S. MARIE    CLOUDY    27  23  85 W7        30.23S WCI  19          
MUNISING         N/A     25  20  81 CALM      30.26R                  
$$
MIZ004>006-011>014-085-220600-
CENTRAL UPPER MICHIGAN
  
CITY           SKY/WX    TMP DP  RH WIND       PRES   REMARKS
MANISTIQUE     CLOUDY    26  21  80 NW3       30.26R                  
ESCANABA       CLOUDY    27  21  78 CALM      30.28R                  
MENOMINEE      FAIR      17  14  88 W3        30.30R                  
SAWYER-GWINN   CLOUDY    22  18  86 CALM      30.24R                  
$$
MIZ001>003-009>011-084-220600-
WESTERN UPPER MICHIGAN
  
CITY           SKY/WX    TMP DP  RH WIND       PRES   REMARKS
IRON MOUNTAIN  CLOUDY    22  17  81 NW3       30.24R                  
HOUGHTON       CLOUDY    24  17  74 W7        30.22R WCI  16          
COPPER HARBOR    N/A     26  20  77 CALM      30.24R                  
IRONWOOD       CLOUDY     6   3  87 CALM      30.25R FOG              
$$

ABBREVIATIONS USED IN REMARKS
   TC - TEMPERATURE IN CELSIUS
  WCI - WIND CHILL INDEX
   HX - HEAT INDEX
  VSB - VISIBILITY